Location: Beuvrequen
(50.8014°N, 1.6652°E)
Time: 00:04:52
(UTC+00:00)

NOAA 16 DEB - Visible Passes

Search period start: 11 August 2022 00:00
Search period end: 21 August 2022 00:00
Orbit: 768 x 851 km, 98.8° (Epoch: 10 August)

Date Brightness Start Highest point End Pass type
(mag) Time Alt. Az. Time Alt. Az. Time Alt. Az.
11 Aug ? 20:57:06 11° E 21:00:24 19° NE 21:03:59 10° N visible
11 Aug ? 22:38:14 50° S 22:39:36 84° WSW 22:44:52 10° NNW visible
12 Aug ? 00:19:22 13° W 00:20:19 14° W 00:22:55 10° NW visible
12 Aug ? 20:34:25 10° ENE 20:36:50 13° NE 20:39:16 10° NNE visible
12 Aug ? 22:14:04 42° SE 22:15:42 64° ENE 22:20:54 10° N visible
12 Aug ? 23:55:12 21° WSW 23:56:02 22° W 00:00:00 10° NW visible
13 Aug ? 21:49:54 30° ESE 21:51:52 42° ENE 21:56:48 10° N visible
13 Aug ? 23:31:02 31° WSW 23:31:51 33° W 23:36:34 10° NNW visible
14 Aug ? 21:25:44 20° E 21:28:07 29° ENE 21:32:35 10° N visible
14 Aug ? 23:06:52 46° SW 23:07:44 51° W 23:12:52 10° NNW visible
15 Aug ? 21:01:33 13° E 21:04:27 20° NE 21:08:13 10° N visible
15 Aug ? 22:42:41 58° S 22:43:42 79° WSW 22:49:00 10° NNW visible
16 Aug ? 00:23:49 13° W 00:24:28 13° W 00:26:48 10° WNW visible
16 Aug ? 20:38:09 10° E 20:40:50 14° NE 20:43:33 10° NNE visible
16 Aug ? 22:18:30 50° SE 22:19:45 69° ENE 22:25:01 10° NNW visible
16 Aug ? 23:59:38 20° W 00:00:08 20° W 00:04:00 10° NW visible
17 Aug ? 21:54:18 35° ESE 21:55:53 45° ENE 22:00:55 10° N visible
17 Aug ? 23:35:26 31° WSW 23:35:54 31° W 23:40:35 10° NNW visible
18 Aug ? 21:30:06 24° E 21:32:05 31° ENE 21:36:41 10° N visible
18 Aug ? 23:11:14 46° WSW 23:11:44 48° W 23:16:52 10° NNW visible
19 Aug ? 21:05:54 16° E 21:08:22 22° NE 21:12:19 10° N visible
19 Aug ? 22:47:02 65° SSW 22:47:40 74° WSW 22:53:00 10° NNW visible
20 Aug ? 00:28:09 12° W 00:28:30 12° W 00:30:32 10° WNW visible
20 Aug ? 20:41:47 10° E 20:44:43 15° NE 20:47:42 10° NNE visible
20 Aug ? 22:22:49 60° SE 22:23:41 73° ENE 22:29:00 10° NNW visible
